Simultaneous Nadir Overpasses (SNOs) Predictions

Prediction of SNOs between AQUA and GOES-15 Satellite Orbit:

Table of predicted SNOs for the next 14.0 days since TLE Epoch: 2/2/2017
Index Date Time (AQUA) AQUA Lat,Lon GOES-15 Lat,Lon Distance(km) Time Diff (sec)
1 02/03/2017 22:28:51 0.48,-133.41 0.06,-135.37 222.76 80
2 02/04/2017 10:50:07 0.60,-138.57 -0.06,-135.39 361.14 80
3 02/06/2017 10:37:56 -0.01,-135.61 -0.05,-135.41 23.14 80
4 02/08/2017 10:25:45 -0.62,-132.65 -0.04,-135.42 314.32 80
5 02/08/2017 22:47:10 -0.45,-137.85 0.04,-135.40 277.36 80
6 02/10/2017 22:34:59 0.17,-134.89 0.03,-135.41 59.82 80
7 02/12/2017 22:22:48 0.80,-131.93 0.03,-135.41 396.62 80
8 02/13/2017 10:44:03 0.33,-137.08 -0.03,-135.43 188.00 80
9 02/15/2017 10:31:52 -0.30,-134.12 -0.03,-135.43 148.50 80
10 02/15/2017 22:53:15 -0.83,-139.31 0.03,-135.42 442.95 80




NCC Satellite Simultaneous Nadir Overpasses (SNOs) Prediction Service
